| time (UTC) | temp F | wind direction | speed MPH | gust MPH | rain 1hr in | rain 24hr in | rain mn in | humidity % | barometer mb |
| 20260505180604 | 60 | 92 | 3.0 | 8.0 | 0.00 | 0.01 | 0.01 | 60 | 1010.2 |
| 20260505180105 | 60 | 111 | 3.0 | 8.0 | 0.00 | 0.01 | 0.01 | 60 | 1010.2 |
| 20260505175104 | 60 | 139 | 1.0 | 6.0 | 0.00 | 0.01 | 0.01 | 58 | 1010.2 |
| 20260505171104 | 61 | 47 | 3.0 | 7.0 | 0.00 | 0.01 | 0.01 | 58 | 1010.2 |
| 20260505170604 | 61 | 68 | 5.0 | 12.0 | 0.00 | 0.01 | 0.01 | 58 | 1010.2 |
| 20260505165604 | 61 | 51 | 3.0 | 7.0 | 0.00 | 0.01 | 0.01 | 56 | 1010.2 |
| 20260505164604 | 61 | 118 | 1.0 | 5.0 | 0.00 | 0.01 | 0.01 | 56 | 1010.2 |
| 20260505164104 | 61 | 112 | 2.0 | 3.0 | 0.00 | 0.01 | 0.01 | 56 | 1010.2 |
| 20260505163604 | 61 | 124 | 2.0 | 3.0 | 0.00 | 0.01 | 0.01 | 56 | 1010.2 |
| 20260505162104 | 61 | 55 | 2.0 | 3.0 | 0.00 | 0.01 | 0.01 | 56 | 1010.2 |
| 20260505160604 | 61 | 148 | 0.0 | 3.0 | 0.00 | 0.01 | 0.01 | 56 | 1010.2 |
| 20260505151604 | 63 | 42 | 3.0 | 7.0 | 0.00 | 0.01 | 0.01 | 56 | 1010.3 |
| 20260505150604 | 63 | 31 | 5.0 | 10.0 | 0.00 | 0.01 | 0.01 | 54 | 1010.4 |
| 20260505150106 | 63 | 75 | 4.0 | 12.0 | 0.00 | 0.01 | 0.01 | 55 | 1010.4 |
| 20260505140604 | 61 | 42 | 4.0 | 8.0 | 0.00 | 0.01 | 0.01 | 61 | 1010.8 |
| 20260505123104 | 62 | 168 | 5.0 | 10.0 | 0.00 | 0.01 | 0.01 | 57 | 1011.0 |
| 20260505122603 | 62 | 114 | 3.0 | 6.0 | 0.00 | 0.01 | 0.01 | 58 | 1011.0 |
| 20260505121604 | 62 | 104 | 3.0 | 8.0 | 0.00 | 0.01 | 0.01 | 58 | 1011.0 |
| 20260505120604 | 62 | 123 | 5.0 | 12.0 | 0.00 | 0.01 | 0.01 | 57 | 1011.1 |
| 20260505113605 | 63 | 15 | 3.0 | 7.0 | 0.00 | 0.01 | 0.01 | 58 | 1011.1 |
| 20260505112604 | 61 | 122 | 5.0 | 10.0 | 0.00 | 0.01 | 0.01 | 60 | 1011.2 |
| 20260505112105 | 61 | 123 | 2.0 | 8.0 | 0.00 | 0.01 | 0.01 | 60 | 1011.2 |
| 20260505111104 | 62 | 134 | 4.0 | 10.0 | 0.00 | 0.01 | 0.01 | 61 | 1011.4 |
| 20260505110104 | 62 | 127 | 3.0 | 8.0 | 0.00 | 0.01 | 0.01 | 65 | 1011.5 |
| 20260505101604 | 57 | 36 | 3.0 | 7.0 | 0.00 | 0.01 | 0.01 | 74 | 1011.8 |
| 20260505100104 | 56 | 34 | 5.0 | 9.0 | 0.00 | 0.01 | 0.01 | 76 | 1011.9 |
| 20260505095104 | 56 | 63 | 4.0 | 7.0 | 0.00 | 0.01 | 0.01 | 77 | 1011.9 |
| 20260505094104 | 56 | 36 | 5.0 | 6.0 | 0.00 | 0.01 | 0.01 | 77 | 1012.0 |
| 20260505093104 | 56 | 55 | 3.0 | 6.0 | 0.00 | 0.01 | 0.01 | 78 | 1012.0 |
| 20260505092604 | 56 | 55 | 3.0 | 7.0 | 0.00 | 0.01 | 0.01 | 79 | 1012.0 |
| 20260505091604 | 55 | 103 | 3.0 | 9.0 | 0.00 | 0.01 | 0.01 | 80 | 1012.1 |
| 20260505090104 | 54 | 52 | 3.0 | 6.0 | 0.00 | 0.01 | 0.01 | 81 | 1012.2 |
| 20260505085104 | 54 | 49 | 5.0 | 8.0 | 0.00 | 0.01 | 0.01 | 81 | 1012.3 |
| 20260505084104 | 54 | 61 | 5.0 | 8.0 | 0.00 | 0.01 | 0.01 | 81 | 1012.4 |
| 20260505083604 | 54 | 61 | 5.0 | 9.0 | 0.00 | 0.01 | 0.01 | 81 | 1012.3 |
| 20260505082604 | 54 | 70 | 3.0 | 7.0 | 0.00 | 0.01 | 0.01 | 82 | 1012.3 |
| 20260505082104 | 54 | 131 | 3.0 | 6.0 | 0.00 | 0.01 | 0.01 | 82 | 1012.3 |
| 20260505081104 | 54 | 60 | 3.0 | 7.0 | 0.00 | 0.01 | 0.01 | 83 | 1012.2 |
| 20260505080604 | 54 | 60 | 2.0 | 6.0 | 0.00 | 0.01 | 0.01 | 83 | 1012.2 |
| 20260505075103 | 53 | 63 | 5.0 | 8.0 | 0.00 | 0.01 | 0.01 | 83 | 1012.2 |
| 20260505074104 | 53 | 47 | 4.0 | 9.0 | 0.00 | 0.01 | 0.01 | 84 | 1012.2 |
| 20260505073606 | 53 | 34 | 5.0 | 7.0 | 0.00 | 0.01 | 0.01 | 84 | 1012.2 |
| 20260505073103 | 53 | 65 | 3.0 | 6.0 | 0.00 | 0.01 | 0.01 | 84 | 1012.1 |
| 20260505071604 | 53 | 55 | 3.0 | 6.0 | 0.00 | 0.01 | 0.01 | 85 | 1012.3 |
| 20260505070603 | 53 | 55 | 1.0 | 3.0 | 0.00 | 0.01 | 0.01 | 85 | 1012.3 |
| 20260505065603 | 53 | 55 | 2.0 | 3.0 | 0.00 | 0.01 | 0.01 | 85 | 1012.3 |
| 20260505065103 | 53 | 55 | 2.0 | 5.0 | 0.00 | 0.01 | 0.01 | 86 | 1012.4 |
| 20260505064104 | 52 | 55 | 3.0 | 6.0 | 0.00 | 0.01 | 0.01 | 86 | 1012.4 |
| 20260505062104 | 52 | 101 | 4.0 | 7.0 | 0.00 | 0.01 | 0.01 | 86 | 1012.4 |
| 20260505060606 | 52 | 37 | 5.0 | 8.0 | 0.00 | 0.01 | 0.01 | 87 | 1012.3 |
| 20260505055606 | 52 | 148 | 2.0 | 3.0 | 0.00 | 0.01 | 0.01 | 87 | 1012.3 |
| 20260505054106 | 52 | 46 | 2.0 | 6.0 | 0.00 | 0.01 | 0.01 | 87 | 1012.3 |
| 20260505053106 | 52 | 87 | 1.0 | 3.0 | 0.00 | 0.01 | 0.01 | 87 | 1012.5 |
| 20260505052606 | 52 | 88 | 1.0 | 3.0 | 0.00 | 0.01 | 0.01 | 87 | 1012.4 |
| 20260505051605 | 52 | 88 | 1.0 | 3.0 | 0.00 | 0.01 | 0.01 | 87 | 1012.4 |
| 20260505051105 | 52 | 88 | 1.0 | 3.0 | 0.00 | 0.01 | 0.01 | 87 | 1012.5 |
| 20260505050606 | 52 | 88 | 2.0 | 3.0 | 0.00 | 0.01 | 0.01 | 87 | 1012.5 |
| 20260505041605 | 53 | 125 | 2.0 | 3.0 | 0.00 | 0.01 | 0.01 | 87 | 1012.6 |
| 20260505041105 | 53 | 125 | 1.0 | 3.0 | 0.00 | 0.01 | 0.01 | 87 | 1012.5 |
| 20260505035105 | 53 | 130 | 3.0 | 6.0 | 0.01 | 0.01 | 0.01 | 87 | 1012.5 |
| 20260505033105 | 53 | 181 | 2.0 | 5.0 | 0.01 | 0.01 | 0.01 | 87 | 1012.6 |
| 20260505032607 | 53 | 181 | 2.0 | 5.0 | 0.01 | 0.01 | 0.01 | 87 | 1012.6 |
| 20260505031605 | 53 | 181 | 1.0 | 3.0 | 0.01 | 0.01 | 0.01 | 87 | 1012.6 |
| 20260505030605 | 54 | 181 | 1.0 | 2.0 | 0.01 | 0.01 | 0.01 | 87 | 1012.6 |
| 20260505030105 | 54 | 181 | 2.0 | 3.0 | 0.01 | 0.01 | 0.01 | 86 | 1012.5 |
| 20260505025105 | 54 | 181 | 2.0 | 3.0 | 0.00 | 0.00 | 0.00 | 86 | 1012.6 |
| 20260505024605 | 54 | 181 | 0.0 | 3.0 | 0.00 | 0.00 | 0.00 | 86 | 1012.6 |
| 20260505023606 | 54 | 181 | 0.0 | 5.0 | 0.00 | 0.00 | 0.00 | 86 | 1012.6 |
| 20260505022106 | 54 | 164 | 2.0 | 3.0 | 0.00 | 0.00 | 0.00 | 86 | 1012.6 |
| 20260505021105 | 54 | 154 | 1.0 | 3.0 | 0.00 | 0.00 | 0.00 | 86 | 1012.7 |
| 20260505020106 | 54 | 155 | 3.0 | 5.0 | 0.00 | 0.00 | 0.00 | 85 | 1012.6 |
| 20260505015106 | 54 | 179 | 2.0 | 5.0 | 0.00 | 0.00 | 0.00 | 85 | 1012.8 |
| 20260505014606 | 54 | 179 | 3.0 | 6.0 | 0.00 | 0.00 | 0.00 | 85 | 1012.9 |
| 20260505014105 | 54 | 175 | 1.0 | 6.0 | 0.00 | 0.00 | 0.00 | 85 | 1012.8 |
| 20260505013105 | 54 | 162 | 2.0 | 6.0 | 0.00 | 0.00 | 0.00 | 85 | 1012.9 |
| 20260505012605 | 54 | 174 | 4.0 | 7.0 | 0.00 | 0.00 | 0.00 | 84 | 1013.0 |
| 20260505011606 | 54 | 133 | 2.0 | 3.0 | 0.00 | 0.00 | 0.00 | 84 | 1013.1 |
| 20260505011105 | 54 | 115 | 2.0 | 3.0 | 0.00 | 0.00 | 0.00 | 83 | 1013.1 |
| 20260505005605 | 54 | 115 | 0.0 | 0.0 | 0.00 | 0.00 | 0.00 | 83 | 1013.1 |
| 20260505005105 | 54 | 115 | 0.0 | 2.0 | 0.00 | 0.00 | 0.00 | 83 | 1013.1 |
| 20260505002606 | 54 | 117 | 2.0 | 5.0 | 0.00 | 0.00 | 0.00 | 82 | 1013.2 |
| 20260504235605 | 55 | 130 | 3.0 | 5.0 | 0.00 | 0.00 | 0.00 | 81 | 1013.3 |
| 20260504234105 | 55 | 119 | 3.0 | 7.0 | 0.00 | 0.00 | 0.00 | 81 | 1013.4 |
| 20260504232605 | 55 | 140 | 3.0 | 5.0 | 0.00 | 0.00 | 0.00 | 80 | 1013.6 |
| 20260504232105 | 55 | 140 | 4.0 | 12.0 | 0.00 | 0.00 | 0.00 | 80 | 1013.6 |
| 20260504231606 | 56 | 121 | 3.0 | 10.0 | 0.00 | 0.00 | 0.00 | 80 | 1013.6 |
| 20260504231107 | 56 | 126 | 3.0 | 7.0 | 0.00 | 0.00 | 0.00 | 80 | 1013.6 |
| 20260504230105 | 56 | 117 | 2.0 | 3.0 | 0.00 | 0.00 | 0.00 | 80 | 1013.6 |
| 20260504225605 | 56 | 117 | 1.0 | 3.0 | 0.00 | 0.00 | 0.00 | 80 | 1013.6 |
| 20260504225105 | 56 | 117 | 2.0 | 5.0 | 0.00 | 0.00 | 0.00 | 80 | 1013.7 |
| 20260504224605 | 56 | 116 | 2.0 | 6.0 | 0.00 | 0.00 | 0.00 | 80 | 1013.6 |
| 20260504223106 | 56 | 68 | 3.0 | 8.0 | 0.00 | 0.00 | 0.00 | 80 | 1013.6 |
| 20260504222605 | 56 | 62 | 3.0 | 8.0 | 0.00 | 0.00 | 0.00 | 80 | 1013.6 |
| 20260504222105 | 56 | 103 | 3.0 | 7.0 | 0.00 | 0.00 | 0.00 | 80 | 1013.6 |
| 20260504215605 | 57 | 72 | 3.0 | 6.0 | 0.00 | 0.00 | 0.00 | 80 | 1013.8 |
| 20260504214105 | 57 | 65 | 4.0 | 8.0 | 0.00 | 0.00 | 0.00 | 80 | 1013.7 |
| 20260504213105 | 57 | 121 | 3.0 | 8.0 | 0.00 | 0.00 | 0.00 | 80 | 1013.7 |
| 20260504210605 | 58 | 102 | 2.0 | 6.0 | 0.00 | 0.00 | 0.00 | 79 | 1013.6 |
| 20260504205605 | 58 | 55 | 3.0 | 9.0 | 0.00 | 0.00 | 0.00 | 79 | 1013.6 |
| 20260504205105 | 58 | 50 | 2.0 | 6.0 | 0.00 | 0.00 | 0.00 | 79 | 1013.6 |
| 20260504204105 | 58 | 72 | 4.0 | 8.0 | 0.00 | 0.00 | 0.00 | 78 | 1013.6 |
| 20260504203605 | 58 | 62 | 5.0 | 10.0 | 0.00 | 0.00 | 0.00 | 78 | 1013.6 |
| 20260504203105 | 58 | 53 | 5.0 | 10.0 | 0.00 | 0.00 | 0.00 | 78 | 1013.6 |
| 20260504202606 | 58 | 66 | 2.0 | 5.0 | 0.00 | 0.00 | 0.00 | 78 | 1013.5 |
| 20260504202106 | 59 | 119 | 2.0 | 6.0 | 0.00 | 0.00 | 0.00 | 78 | 1013.6 |
| 20260504201105 | 59 | 67 | 3.0 | 7.0 | 0.00 | 0.00 | 0.00 | 78 | 1013.5 |
| 20260504195605 | 59 | 84 | 3.0 | 7.0 | 0.00 | 0.00 | 0.00 | 77 | 1013.4 |
| 20260504194105 | 59 | 123 | 2.0 | 6.0 | 0.00 | 0.00 | 0.00 | 77 | 1013.3 |
| 20260504193106 | 59 | 136 | 3.0 | 6.0 | 0.00 | 0.00 | 0.00 | 77 | 1013.3 |
| 20260504191605 | 59 | 119 | 4.0 | 8.0 | 0.00 | 0.00 | 0.00 | 77 | 1013.2 |
| 20260504185605 | 59 | 117 | 3.0 | 6.0 | 0.00 | 0.00 | 0.00 | 76 | 1013.0 |
| 20260504184605 | 59 | 129 | 3.0 | 5.0 | 0.00 | 0.00 | 0.00 | 76 | 1013.0 |
| 20260504182105 | 60 | 123 | 5.0 | 7.0 | 0.00 | 0.00 | 0.00 | 75 | 1012.9 |
| 20260504181605 | 60 | 132 | 5.0 | 8.0 | 0.00 | 0.00 | 0.00 | 74 | 1012.9 |